Theta_e
312 312 312 311 310 311 312 312 311 311 311 312 312 311 311 311 311 311 312 312 312 312 312 312 312 313 312 312 313 313 312 307 304 302 298 301 307 315 319 320 321 322 323 312 310 309 306 307 307 309 309 308 306 305 308 309 305 305 301 297 294 296 294 298 298 298 298 298 301 300 299 300 300 323 328 330 329 329 329 329 331 332 332 334 334 337 338 339
312 311 312 311 310 311 310 310 312 311 311 310 311 311 311 311 311 311 312 312 312 312 312 312 312 312 312 311 312 312 310 306 301 300 300 308 317 317 324 324 324 323 318 309 307 305 304 303 305 308 306 303 306 303 308 305 307 302 297 298 294 296 298 300 300 299 298 300 300 300 300 299 300 323 320 321 324 326 326 328 329 327 331 332 334 335 336 338
312 311 311 311 311 311 311 310 310 311 311 310 310 311 311 311 311 311 311 311 312 312 312 312 312 312 312 312 311 312 307 300 298 295 300 316 317 317 320 322 328 325 311 307 306 306 305 305 307 305 304 303 305 303 306 304 306 302 300 295 297 300 300 299 299 300 300 300 300 301 299 298 300 304 307 316 323 324 322 324 324 328 327 329 331 334 335 336
311 311 311 311 311 310 311 311 310 310 310 311 311 311 311 311 311 311 311 311 311 311 311 311 311 311 311 311 312 310 304 299 292 297 302 322 325 321 320 322 328 325 310 310 306 304 303 307 307 305 302 302 303 304 301 304 303 302 300 297 298 300 299 301 300 302 301 299 300 299 299 300 301 300 310 320 319 319 323 327 323 324 330 329 331 333 334 335
311 311 311 310 310 310 310 311 310 310 310 311 311 311 311 311 311 311 311 311 311 311 311 311 311 311 311 311 311 309 300 292 294 297 302 329 332 329 324 325 330 318 310 307 304 304 306 306 305 303 301 299 302 303 302 303 305 301 301 302 302 296 297 302 301 300 300 299 298 298 300 300 301 314 321 322 309 308 316 322 328 330 333 330 330 332 334 334
310 310 310 310 310 310 310 309 310 310 310 310 310 310 311 311 310 310 310 311 311 311 311 310 310 311 311 311 309 305 292 286 296 300 322 331 330 333 327 325 329 312 308 307 305 303 304 304 304 299 298 300 301 299 303 304 302 297 299 299 301 300 300 301 301 299 298 299 299 299 300 300 300 301 312 319 307 308 310 317 329 332 334 333 334 333 332 333
310 310 310 310 310 310 310 310 310 309 309 310 310 310 310 311 310 310 310 311 310 310 310 310 310 310 310 309 307 302 291 293 298 301 322 334 332 331 326 327 324 308 308 305 303 302 302 302 301 299 298 298 301 301 302 302 301 300 298 298 300 300 299 300 301 300 300 298 300 300 299 299 299 299 304 316 316 307 309 326 332 334 334 334 332 332 332 333
310 310 309 309 309 309 309 310 310 310 310 310 310 310 310 310 310 310 310 311 310 310 310 310 310 310 311 305 299 296 294 293 301 301 321 331 330 328 327 317 309 307 306 305 303 302 301 300 298 300 298 295 298 301 302 302 300 300 299 301 302 301 301 302 301 300 299 298 300 298 298 299 300 300 301 305 306 314 333 334 334 334 333 333 332 332 332 333
309 309 309 309 309 310 310 310 310 310 310 310 309 308 309 310 310 309 309 309 309 310 310 310 309 309 310 303 296 291 290 301 302 308 323 323 324 322 315 309 307 306 306 306 306 303 302 299 298 301 295 296 301 300 300 301 298 301 301 300 301 302 303 302 301 301 300 299 297 298 299 298 299 299 299 302 306 322 333 334 333 332 331 331 331 332 332 333
309 309 309 309 310 309 309 310 310 310 309 309 310 309 309 309 309 309 310 309 309 309 310 310 309 309 307 302 294 287 296 300 306 320 321 320 318 317 313 311 307 305 304 304 304 303 301 301 299 301 301 300 302 300 301 301 298 302 302 302 302 303 302 300 299 301 297 298 298 298 300 298 297 298 299 306 317 330 332 331 331 331 329 330 331 332 332 332
309 309 309 309 309 309 309 309 309 308 309 309 309 308 309 309 309 308 309 309 308 309 309 309 309 308 302 300 292 288 299 314 317 319 318 317 315 312 309 309 306 305 305 302 303 305 304 303 304 304 303 299 302 299 300 301 302 300 302 300 300 302 298 299 297 298 298 299 298 300 298 298 298 298 300 305 326 330 330 328 328 329 329 330 331 331 332 332
309 309 309 309 309 309 309 309 308 307 308 309 309 308 308 309 308 308 309 309 308 308 309 309 309 308 305 300 294 293 299 314 307 307 316 315 312 309 308 309 306 306 304 301 303 304 305 305 306 303 296 304 298 299 300 301 302 299 299 297 297 296 297 299 299 298 297 299 297 300 298 298 298 298 301 302 329 329 330 328 328 328 329 330 330 331 331 332
309 309 308 309 309 309 309 309 308 308 308 307 307 308 308 308 308 308 308 308 308 308 308 308 307 306 301 293 296 303 303 305 304 302 302 312 315 314 310 309 307 306 306 305 302 304 303 306 307 302 304 303 299 297 299 301 298 298 297 297 296 297 296 298 296 295 296 298 296 300 293 296 299 298 300 306 328 329 327 326 328 328 329 330 331 331 331 332
308 308 308 308 308 308 308 308 308 308 307 308 308 308 307 307 307 307 308 307 308 309 308 308 306 306 300 292 298 301 302 303 303 301 300 305 308 309 310 310 309 308 308 305 304 305 303 306 308 306 304 303 301 304 300 298 296 296 295 296 294 294 294 296 296 295 296 297 296 299 294 296 298 299 300 316 329 327 323 326 328 328 329 330 331 331 331 332
308 307 308 308 308 308 308 308 308 308 307 307 308 307 307 306 307 307 308 307 308 308 308 309 308 302 294 296 304 306 315 309 303 302 302 303 304 305 311 308 307 308 307 306 305 305 304 306 306 304 302 303 303 301 297 295 294 295 293 291 292 293 294 296 298 296 297 297 297 298 295 297 298 300 299 306 326 328 324 326 327 327 329 330 331 331 331 331
307 308 308 307 308 307 307 307 307 307 307 307 307 307 307 307 307 307 307 307 307 307 307 304 302 302 295 290 296 309 308 303 303 306 304 305 305 301 310 308 310 308 308 307 307 306 304 305 301 303 302 301 300 298 294 294 293 293 293 292 290 292 293 293 296 295 296 297 298 297 295 295 297 299 298 310 325 326 323 325 327 327 328 329 330 330 331 331
307 308 308 307 307 307 307 307 307 306 306 306 307 306 306 306 307 307 307 307 307 308 306 300 302 303 291 300 306 298 298 303 306 306 302 305 307 308 310 309 308 307 308 306 306 306 304 301 302 300 300 300 297 297 293 291 290 291 293 292 292 291 292 291 297 297 297 297 296 297 296 296 297 299 298 310 323 325 323 324 326 327 328 329 329 330 330 330
307 307 306 306 306 306 306 306 306 307 307 306 305 305 303 306 308 307 306 306 307 307 306 308 302 300 295 302 294 296 300 302 305 306 304 305 307 311 309 305 306 307 305 302 303 301 301 298 299 295 297 296 295 296 291 287 290 290 291 291 290 290 292 292 293 295 297 297 297 297 297 298 298 299 299 302 321 325 324 323 326 326 327 328 329 330 329 329
306 306 306 306 306 305 306 306 306 306 306 306 306 305 305 307 307 305 302 302 298 290 286 291 295 283 286 292 297 299 301 303 304 307 303 304 307 309 306 308 308 304 299 298 298 300 299 297 298 295 292 293 294 295 294 293 293 292 293 293 292 291 291 292 295 296 296 297 296 296 297 298 297 299 299 303 311 322 324 324 325 326 327 328 328 329 329 330
307 307 306 306 306 306 305 305 305 306 306 304 302 300 298 299 299 297 300 300 295 292 289 291 298 296 294 294 297 301 305 304 301 302 304 306 307 305 304 305 301 302 298 294 295 298 299 293 290 291 294 295 295 295 297 295 295 293 292 292 292 292 292 292 293 296 295 296 297 297 297 296 296 296 301 310 312 314 319 320 323 325 325 326 327 328 329 330
307 307 307 306 305 304 305 305 305 305 305 303 300 296 286 291 289 289 296 297 299 299 297 296 299 296 294 297 299 299 295 298 302 301 304 311 307 303 300 301 299 297 297 297 296 300 298 293 292 295 295 295 295 296 295 292 294 294 292 291 289 291 292 294 294 295 298 298 296 294 296 295 294 299 303 305 310 310 313 315 319 323 325 325 326 327 328 329
306 307 307 306 305 304 305 305 305 305 304 302 298 292 294 294 296 298 295 289 295 299 299 297 298 297 301 300 301 300 300 295 297 300 303 307 303 299 298 299 296 295 296 295 296 294 292 291 294 296 297 296 295 295 296 296 292 292 292 291 291 291 292 294 293 295 297 296 296 295 295 294 296 300 306 306 305 311 313 316 318 321 323 324 325 326 327 328
305 306 307 306 304 304 304 304 305 304 302 298 294 293 293 299 301 303 299 294 291 297 296 296 294 294 295 299 299 302 294 292 292 298 301 304 300 299 299 297 296 296 294 295 291 292 289 292 296 296 295 296 293 293 295 294 295 293 291 291 290 291 291 290 296 295 296 296 296 296 296 297 301 300 305 310 311 313 314 314 315 316 318 322 324 325 325 325
303 305 306 306 305 304 305 304 304 302 299 297 296 296 300 301 302 301 295 290 290 293 295 297 297 296 296 295 301 299 295 295 295 295 305 303 297 299 299 297 295 295 293 294 294 292 291 295 298 294 296 296 293 293 294 293 291 293 293 292 291 289 292 293 293 295 296 295 297 296 297 297 301 302 305 309 312 314 314 316 316 316 316 317 322 324 326 326
304 305 306 305 305 305 304 304 299 298 299 297 295 300 302 303 303 302 294 292 291 291 299 296 299 298 299 306 303 297 297 297 298 301 304 303 298 298 297 300 298 293 294 294 295 294 294 295 296 294 294 295 294 291 294 294 291 291 293 293 293 293 293 290 294 295 296 295 294 294 290 292 299 301 303 307 312 312 315 314 313 315 316 317 318 321 324 325
305 306 305 305 304 303 304 297 297 298 296 294 297 303 303 303 303 303 294 287 283 290 294 290 300 295 305 297 300 300 299 293 301 302 302 304 306 301 298 296 299 293 293 293 295 296 295 296 296 294 293 293 294 293 293 295 292 291 292 294 293 294 294 293 292 293 290 289 294 293 290 288 297 301 303 305 307 310 313 313 313 314 314 315 315 317 319 321
305 305 305 304 304 304 297 293 300 298 293 295 301 303 302 302 304 300 289 283 280 291 288 294 295 295 303 299 300 301 286 290 302 303 302 305 301 302 297 294 295 296 296 298 294 291 294 294 295 295 294 293 293 292 292 294 292 290 294 293 293 293 293 293 294 293 293 296 295 293 294 291 291 298 301 304 305 308 310 311 312 313 314 315 315 317 318 320
305 305 305 304 303 303 299 299 297 293 294 298 302 301 302 302 303 300 288 274 275 293 288 292 296 304 300 300 302 294 295 300 293 299 304 304 304 298 300 294 296 294 294 295 287 295 297 292 294 293 294 293 293 294 294 295 293 293 294 293 292 294 295 294 294 293 294 293 291 294 294 291 289 298 302 305 304 305 308 310 311 312 313 315 316 317 319 321
304 305 304 303 303 303 303 299 296 293 299 301 301 301 301 302 300 293 284 274 291 289 304 292 304 298 298 300 297 297 296 298 293 298 302 302 303 300 295 295 297 296 295 296 292 293 294 297 296 296 294 292 295 295 295 294 292 294 293 294 294 293 293 294 293 293 292 290 287 292 293 289 289 295 301 302 304 303 306 309 311 312 313 314 316 316 318 320
304 304 304 303 302 300 299 300 296 300 301 301 301 301 302 300 295 283 279 273 295 285 292 292 293 291 297 293 294 296 294 295 296 297 300 298 299 299 296 299 296 295 293 295 296 295 295 301 300 297 295 297 297 295 295 296 296 295 294 293 292 292 292 293 294 294 291 285 289 293 291 291 286 295 299 299 302 304 307 310 312 313 313 314 315 316 317 318
304 304 303 303 297 298 298 293 297 301 301 302 301 301 299 296 287 280 273 283 293 292 296 290 289 297 293 292 289 295 295 295 295 297 293 297 295 297 296 295 297 294 294 294 294 294 294 295 295 297 300 297 298 293 295 296 295 296 293 292 292 291 293 292 291 293 285 283 290 289 289 290 286 293 299 305 308 310 310 309 310 311 311 312 313 315 316 316
303 303 303 300 300 300 294 293 298 302 301 301 300 297 295 284 286 278 278 297 283 289 290 290 293 294 293 294 291 292 291 293 294 295 293 293 293 292 293 290 293 286 287 289 289 292 291 293 294 294 301 298 295 293 292 294 294 294 294 293 287 285 286 283 287 282 284 284 289 289 289 289 290 298 303 306 307 310 311 310 310 310 311 312 313 314 315 316
304 303 303 301 301 298 298 300 302 301 301 300 296 294 288 282 274 282 283 288 284 294 290 297 292 292 292 291 289 292 294 290 294 293 294 293 293 293 293 293 294 293 285 290 289 289 290 293 292 294 295 299 297 291 289 289 292 292 291 290 286 282 281 277 282 284 286 288 288 289 290 290 297 302 305 305 307 310 311 312 312 311 311 312 313 314 315 315
303 303 300 301 300 300 301 302 301 301 298 297 294 291 286 277 277 291 284 286 287 295 295 293 294 293 292 288 289 292 288 292 292 292 293 291 292 290 291 293 294 292 294 289 287 287 283 284 290 292 290 297 297 295 294 293 292 292 294 292 290 288 283 277 282 278 282 285 287 288 287 286 290 298 306 308 309 311 312 312 313 313 312 312 313 313 313 314
303 302 301 301 301 301 302 302 302 301 298 294 290 288 279 278 284 284 287 290 291 293 291 295 291 290 289 290 291 293 293 289 293 291 291 290 289 291 290 291 292 294 292 287 288 287 287 287 293 295 295 297 294 296 296 294 292 292 292 294 290 288 294 285 286 287 286 285 284 287 285 295 297 303 307 310 310 311 311 312 312 310 311 311 311 311 311 312
300 299 301 298 298 301 302 302 302 300 295 292 288 282 280 284 281 290 289 295 293 288 289 292 291 287 287 288 290 291 294 291 291 292 290 291 291 290 292 293 292 294 291 288 290 285 286 286 291 292 292 295 296 296 295 297 286 291 291 288 292 296 293 284 283 285 284 286 282 288 291 297 303 304 306 307 308 309 310 310 309 309 309 310 309 309 309 310
297 298 295 299 300 303 302 302 301 298 294 292 287 282 287 286 290 292 293 292 291 292 290 284 286 286 285 285 287 289 291 293 290 291 287 291 288 291 290 292 294 293 295 294 287 293 286 288 291 291 289 294 295 297 296 295 297 292 288 292 294 296 297 292 283 283 284 282 281 288 289 292 294 292 305 304 305 307 308 308 307 308 308 307 307 307 308 308
296 296 298 298 302 304 303 302 300 296 296 291 284 287 291 286 292 291 296 293 291 291 289 286 288 289 285 286 286 288 290 289 288 290 287 289 288 294 292 293 293 294 294 292 293 291 292 286 289 289 292 293 294 296 294 296 297 295 293 298 292 286 286 288 287 278 279 279 281 287 289 292 295 296 300 301 303 305 306 306 306 305 306 305 306 306 306 307
296 296 292 300 302 303 302 302 299 296 295 288 285 284 290 290 295 294 295 293 292 292 288 289 286 289 288 286 287 288 289 286 289 288 286 287 288 295 293 294 293 293 293 293 293 290 293 287 286 290 291 292 294 294 287 291 294 294 296 294 294 295 293 286 288 290 288 279 281 283 288 287 297 299 303 303 304 306 305 303 302 303 304 304 304 304 305 305
294 292 293 301 303 303 302 300 298 296 291 285 287 287 292 289 292 295 294 292 290 292 290 288 290 287 289 288 288 287 288 289 288 287 290 291 292 295 295 299 293 293 292 294 293 293 288 293 284 289 290 291 289 293 291 292 290 291 293 292 292 294 294 294 291 288 287 282 283 283 281 288 297 301 304 305 306 307 304 302 302 302 302 303 303 303 304 303
296 291 294 302 302 303 300 299 293 290 289 290 291 290 290 288 293 293 293 294 292 295 290 290 290 288 289 287 286 289 289 291 291 291 291 291 292 287 296 299 297 293 293 293 293 295 290 288 286 289 290 290 292 296 297 294 294 294 293 291 293 290 288 286 284 288 287 287 280 284 283 292 297 304 307 307 308 305 304 304 302 302 301 302 302 302 302 302
291 289 294 302 302 301 298 290 291 293 290 288 286 289 288 295 292 292 292 294 293 292 297 293 293 291 289 288 289 288 291 291 292 292 292 291 294 295 296 299 299 295 292 290 292 295 297 291 291 286 291 294 296 298 298 299 299 295 295 293 294 295 295 290 283 285 288 287 288 290 286 288 301 307 308 309 307 305 305 305 301 301 301 300 300 301 301 301
291 291 301 302 302 300 295 289 292 291 290 291 294 291 293 291 291 291 290 293 291 294 292 291 291 289 290 291 290 291 293 290 292 292 293 294 295 296 298 297 299 295 299 295 293 296 306 290 289 289 292 293 295 295 299 299 299 297 296 295 292 293 295 294 292 292 289 287 286 286 284 288 301 308 307 305 305 305 305 304 301 300 300 300 299 299 299 299
293 292 296 301 303 300 293 285 285 287 290 292 291 289 293 292 292 289 288 292 291 293 291 291 292 292 292 291 293 293 294 289 292 292 292 294 295 298 296 300 299 298 296 295 292 299 289 288 290 287 287 289 292 294 295 297 299 297 296 296 294 292 292 293 293 294 288 289 289 287 282 290 300 305 303 303 302 301 301 302 301 299 299 299 299 298 298 299
292 297 298 298 301 299 291 291 288 286 290 289 291 290 294 293 296 293 290 288 292 292 291 291 292 292 293 293 292 293 293 294 292 294 295 294 296 298 298 302 303 304 307 303 304 299 293 289 290 283 280 279 278 281 285 289 293 296 294 294 294 292 294 295 288 289 286 287 287 288 288 294 300 301 301 300 299 297 298 298 299 299 299 298 298 298 298 298
290 285 292 295 297 296 296 298 296 292 288 290 287 292 293 289 292 296 294 294 295 294 293 292 292 294 293 294 292 291 292 295 295 293 293 294 295 296 296 300 306 306 306 307 304 302 291 290 289 290 288 286 289 289 291 292 294 293 291 292 292 292 290 295 294 288 287 287 288 291 296 294 295 297 297 298 298 296 296 297 297 297 298 298 297 297 297 297
293 287 287 286 293 293 292 295 294 295 291 294 286 292 290 290 292 293 296 293 294 292 293 292 291 294 293 293 291 291 292 293 295 294 292 293 294 296 296 297 299 305 307 302 303 298 295 290 290 289 287 287 287 288 290 292 291 289 292 292 291 292 292 295 290 289 293 289 286 293 298 295 295 297 297 297 297 298 298 297 297 297 297 296 296 296 297 297
286 291 295 297 289 286 287 288 293 293 295 294 292 294 292 290 291 288 294 294 293 294 292 292 293 291 290 292 293 289 291 290 291 289 292 292 294 296 297 298 296 299 302 298 298 301 296 289 290 291 287 289 289 289 292 291 290 290 290 291 291 291 293 293 289 290 294 290 288 294 299 297 297 298 299 297 297 297 298 297 297 297 297 296 296 295 295 296
294 294 295 300 290 292 290 292 294 294 294 295 293 293 292 291 291 294 292 293 292 293 292 286 290 290 291 290 293 290 290 289 287 290 292 292 292 294 293 296 298 299 299 297 296 297 295 289 291 291 288 288 288 290 291 291 290 291 290 291 293 293 291 291 290 291 293 293 296 298 299 296 296 296 296 296 297 296 295 296 296 295 295 295 295 294 294 294
291 291 289 297 296 295 295 295 295 295 292 296 291 293 292 292 292 294 292 290 287 292 293 291 288 289 291 292 293 292 291 295 294 289 292 294 290 293 291 294 294 298 298 296 296 296 298 289 292 290 290 288 288 290 291 290 291 288 289 291 292 293 293 294 294 294 296 296 298 299 295 289 292 294 293 294 295 295 294 293 293 294 294 293 293 293 293 293
296 298 297 291 290 293 294 295 294 293 290 292 292 293 292 293 292 293 291 292 291 291 293 291 290 291 291 291 291 290 292 295 296 296 296 296 292 292 295 293 294 296 296 297 296 294 298 289 291 291 289 287 288 289 289 291 291 288 287 288 289 291 291 291 290 290 293 293 295 295 292 291 290 293 293 294 293 292 291 291 292 292 293 292 292 292 292 292
299 302 300 295 288 294 293 293 292 291 288 292 294 293 292 293 295 291 288 292 293 292 292 292 293 292 291 291 290 291 293 293 293 295 297 296 297 296 296 295 294 296 296 294 293 293 293 291 290 290 288 285 288 289 288 287 290 288 286 286 288 291 292 292 293 293 292 297 293 291 294 295 291 292 290 290 291 290 290 291 291 291 292 292 291 291 292 292
Wind_Speed
13 13 12 13 13 12 13 14 14 14 13 13 13 13 13 13 13 14 14 13 14 14 14 14 14 15 15 15 16 17 14 11 12 7 6 13 6 9 11 7 16 12 5 7 9 10 4 4 5 0 4 2 1 4 2 2 1 2 4 2 4 1 5 4 6 6 3 3 5 5 7 7 7 4 3 0 8 5 3 3 3 3 5 4 5 10 12 12
14 13 14 13 13 14 14 13 14 13 13 13 14 14 13 13 13 13 14 14 14 14 14 14 14 15 16 15 16 15 13 9 11 10 20 5 10 12 12 10 14 13 7 9 12 7 10 4 4 6 6 4 2 2 1 3 2 3 2 3 6 5 2 2 1 2 2 4 5 4 4 1 6 2 2 1 2 3 5 3 1 2 5 7 9 11 11 12
13 13 13 13 13 13 14 13 14 14 13 13 13 14 13 13 13 13 14 14 13 14 14 14 14 14 15 15 16 12 10 8 5 13 12 9 21 17 10 11 12 14 12 8 6 10 10 11 9 8 1 4 1 4 3 3 4 2 3 5 7 3 4 3 2 3 6 4 8 7 1 4 6 2 2 2 2 2 6 4 3 3 5 9 10 11 11 12
14 14 13 13 13 13 13 14 13 14 14 14 13 13 13 13 13 13 13 14 13 13 14 14 14 14 15 15 14 8 6 5 5 4 1 5 6 11 12 14 14 15 5 4 6 5 4 9 8 6 3 3 2 2 8 4 5 3 3 5 4 2 5 3 6 8 6 3 5 3 3 3 4 1 3 4 6 2 4 6 4 4 10 12 12 12 11 12
14 14 14 14 14 14 13 13 13 13 13 13 13 14 14 13 13 13 13 14 13 13 14 13 14 14 15 15 10 4 3 5 3 0 2 4 2 7 13 16 16 13 9 9 8 5 9 11 8 2 2 4 3 5 4 5 2 6 6 3 3 3 3 5 5 3 3 0 1 2 9 4 3 3 1 8 3 4 3 3 9 2 11 15 14 12 11 12
14 14 14 14 14 14 14 14 14 13 13 14 13 14 13 12 13 13 13 14 13 13 13 13 13 13 14 12 3 0 1 4 1 1 4 3 2 4 11 17 16 11 10 13 8 7 11 6 10 6 4 4 9 8 4 6 6 6 2 4 5 4 7 1 2 2 3 3 3 7 2 3 1 5 3 5 2 2 4 4 2 8 12 13 12 12 12 13
13 14 14 14 14 14 15 14 14 14 13 13 13 13 14 13 12 13 13 13 13 13 13 13 12 13 12 6 0 3 2 9 5 4 6 6 5 7 13 16 15 11 10 11 10 10 8 10 9 7 6 3 4 5 5 7 3 5 4 2 6 6 8 3 7 3 6 3 4 1 2 6 1 4 2 3 7 6 7 2 6 11 13 13 13 11 12 12
13 13 14 15 14 14 14 15 14 13 13 13 12 13 13 14 13 13 13 14 13 13 13 12 11 11 9 5 2 0 1 12 6 3 9 5 5 13 15 11 12 11 13 14 14 11 10 12 13 4 5 9 5 10 5 7 5 9 6 5 5 3 5 6 5 6 6 5 4 3 5 1 4 2 6 4 7 3 3 5 10 11 11 11 11 12 11 11
14 13 14 14 14 14 13 14 14 13 11 12 13 13 13 13 13 13 14 14 13 12 12 11 10 8 8 2 1 1 9 7 3 6 5 4 6 9 15 11 8 14 9 8 11 12 13 9 6 9 6 8 4 10 3 8 6 8 8 3 3 7 2 2 5 8 5 3 2 3 7 3 3 2 3 4 2 1 2 7 9 10 10 10 11 11 11 10
14 14 14 14 14 14 13 13 13 13 14 13 13 12 13 13 13 13 14 13 12 12 11 10 9 8 4 2 1 3 6 2 4 5 2 6 7 9 1 8 13 10 10 9 7 11 13 10 12 6 4 3 7 7 6 8 2 6 9 9 9 8 3 2 4 5 2 3 5 4 7 4 1 3 2 0 2 2 5 7 6 8 8 8 9 9 9 10
14 14 14 14 14 14 14 14 13 12 12 13 12 14 14 14 13 13 14 13 12 11 10 10 8 7 2 0 4 8 2 1 4 5 3 7 8 7 3 9 10 10 9 8 11 13 4 9 4 5 1 3 7 4 7 5 5 4 5 3 6 7 4 7 4 10 2 5 9 10 2 3 1 3 2 3 5 6 6 7 7 5 7 7 8 8 8 8
15 14 13 14 14 14 15 14 12 13 13 14 14 14 14 13 14 13 13 13 12 11 9 8 8 4 3 2 5 10 1 2 3 6 4 4 5 1 2 5 5 5 13 11 8 4 5 7 7 4 3 7 6 5 5 2 5 3 6 3 4 1 6 5 8 1 3 3 4 5 2 1 2 3 3 2 6 6 4 7 7 7 7 7 7 7 7 7
14 13 13 13 13 13 14 14 12 13 13 14 14 14 14 13 14 14 14 13 11 10 9 8 5 3 2 4 12 12 10 4 5 4 5 2 0 2 2 7 1 3 6 3 7 7 1 5 7 6 2 4 5 2 3 4 2 5 3 2 3 2 4 2 1 1 3 2 4 7 6 3 7 1 6 4 7 6 5 6 7 6 7 7 8 7 7 7
14 13 13 13 14 13 13 14 14 13 13 12 14 14 15 15 15 15 14 13 12 11 8 7 3 3 5 7 7 4 8 5 9 12 6 4 4 2 3 3 2 2 3 4 2 3 3 1 3 3 3 4 4 2 4 2 1 7 3 2 2 3 3 1 0 3 4 2 5 5 6 4 2 6 1 2 7 10 9 7 7 6 6 6 7 7 7 8
14 14 13 14 15 14 15 13 14 14 14 14 15 16 15 16 17 16 14 13 11 9 8 8 5 3 2 10 8 14 19 4 8 10 6 8 9 2 5 3 3 2 2 3 2 1 1 2 3 5 4 1 0 3 1 1 2 1 7 5 2 4 2 4 2 4 4 4 1 4 3 3 1 7 5 3 7 6 5 4 5 6 6 6 5 6 7 7
14 14 13 13 13 13 12 13 14 14 14 15 15 16 17 18 18 17 15 12 11 9 6 2 5 5 4 10 2 5 2 4 7 6 11 11 10 7 9 5 4 3 2 1 1 2 1 3 4 3 2 2 3 2 3 4 2 2 4 3 6 3 2 1 2 1 1 2 2 4 2 2 2 2 2 5 6 6 5 5 6 7 7 5 5 5 6 6
13 13 13 13 13 14 13 13 13 15 15 15 16 16 18 18 18 17 12 9 5 5 5 2 5 5 3 2 5 5 5 5 1 1 3 7 11 9 11 8 4 5 3 4 3 3 3 6 1 2 3 2 1 3 6 5 3 5 2 4 1 8 5 3 1 1 3 2 6 1 4 1 0 3 3 5 6 7 6 6 5 6 5 6 6 7 7 7
13 12 13 14 14 12 13 14 14 14 14 14 14 16 16 20 9 3 5 5 3 3 5 2 2 4 11 5 7 2 1 3 1 1 4 4 7 11 11 5 4 8 6 4 2 5 2 4 1 6 4 3 4 6 10 10 7 6 6 5 4 1 2 2 3 2 2 4 3 2 3 4 4 6 5 3 6 8 9 4 3 6 6 7 7 7 8 8
14 14 14 14 14 14 13 13 14 15 15 12 11 15 12 2 4 6 7 7 6 2 1 6 7 7 1 1 3 4 3 3 2 5 6 10 6 4 6 6 10 14 6 5 4 5 2 3 1 5 11 7 7 8 7 3 6 9 8 6 5 7 6 5 2 1 3 1 2 5 4 2 0 4 4 2 3 7 5 3 1 4 5 6 7 7 8 8
13 13 13 12 11 12 13 13 14 13 14 9 8 8 1 2 2 3 1 5 8 5 2 3 12 4 9 2 2 6 7 0 2 2 6 4 10 9 8 7 4 2 9 7 7 6 5 9 10 11 9 8 7 7 9 4 5 5 4 5 4 5 2 2 4 1 1 2 2 2 0 2 2 4 6 5 1 3 4 2 2 4 5 6 7 8 8 6
14 14 14 14 13 14 14 13 13 12 11 6 7 5 1 1 1 2 2 10 14 13 12 7 16 12 8 3 4 11 10 4 2 2 7 6 8 15 7 6 8 6 5 5 9 3 5 7 9 7 9 10 11 8 6 7 3 9 6 5 3 3 5 2 2 3 2 2 3 1 3 5 6 6 7 6 1 1 2 2 2 5 6 6 7 8 7 3
13 13 15 14 12 14 15 14 13 12 6 2 2 3 3 4 2 3 2 6 9 19 16 16 7 13 10 12 3 4 3 5 12 5 2 11 11 12 6 8 8 9 4 5 4 6 8 9 6 7 5 6 6 6 6 9 6 3 5 3 3 4 1 3 2 1 1 1 2 1 6 6 5 5 7 8 6 4 3 3 3 1 5 6 7 8 6 6
14 14 15 16 13 14 14 15 13 10 3 2 3 3 4 3 2 4 2 6 11 10 14 14 11 17 17 6 6 3 5 9 8 6 6 10 9 8 11 9 9 6 5 9 11 7 8 7 9 6 8 10 4 5 7 6 3 5 4 5 5 3 5 5 2 1 1 1 2 2 10 5 4 1 4 7 6 4 3 5 7 7 4 3 5 6 6 6
14 13 15 15 12 13 14 14 12 3 2 2 5 8 4 3 6 7 2 5 6 4 11 12 17 9 12 8 8 14 11 5 6 8 6 9 12 6 10 12 10 6 9 9 10 12 7 9 7 10 8 11 9 6 10 8 6 1 4 5 3 4 2 2 5 1 2 2 3 5 7 4 6 4 4 6 4 4 4 6 9 8 7 5 0 3 1 6
13 13 14 14 12 14 15 14 3 2 6 6 7 8 8 8 6 3 2 4 4 6 3 2 5 8 6 5 8 10 9 3 11 3 6 12 8 8 7 4 6 8 9 7 7 8 4 2 9 10 8 7 10 7 7 8 6 4 5 6 7 6 4 0 2 1 2 3 2 3 3 2 3 2 3 4 3 5 6 9 10 9 10 10 7 5 3 3
13 14 14 14 14 14 15 6 1 6 9 5 3 3 3 3 3 2 2 2 5 2 2 5 9 6 11 7 10 6 9 7 10 11 5 10 7 7 6 6 4 11 8 10 8 4 4 5 11 12 11 8 10 8 7 8 6 6 5 8 5 7 5 3 3 2 3 5 2 1 4 3 1 2 3 4 5 3 7 11 11 11 10 9 8 6 4 3
13 13 14 12 11 13 7 1 6 10 6 1 3 6 6 6 6 3 3 2 3 4 6 4 5 1 4 10 13 11 6 6 5 6 8 5 12 2 11 6 3 4 3 4 2 6 4 6 4 6 9 8 6 8 5 8 6 6 1 9 8 7 7 6 5 4 1 2 1 1 1 4 4 1 4 6 5 5 10 12 12 10 10 9 8 7 6 4
14 15 14 13 11 9 5 7 8 8 7 1 5 8 8 7 4 2 2 2 2 1 2 3 5 3 2 10 13 14 1 8 8 8 13 7 8 1 6 12 12 11 7 6 11 3 8 7 9 10 7 6 9 5 9 9 7 2 4 10 11 11 9 8 5 3 1 2 4 2 0 4 2 0 3 5 2 6 10 10 10 10 8 7 7 7 7 6
13 14 15 11 13 10 7 6 8 9 2 3 8 9 7 7 1 2 0 2 3 2 1 7 2 4 3 10 8 7 2 3 1 5 7 5 3 3 8 8 7 10 4 9 8 4 4 11 12 11 10 8 4 6 12 9 7 2 6 4 5 6 4 5 5 4 2 3 4 5 2 4 4 1 3 0 2 5 6 8 9 8 8 8 8 8 8 7
15 14 15 11 10 6 4 5 11 9 6 8 8 10 8 2 3 2 2 3 3 2 4 1 4 3 7 11 8 8 3 1 2 5 9 6 9 3 5 2 8 10 7 1 6 2 3 3 3 6 9 8 8 3 10 13 2 9 10 9 4 3 3 3 3 3 4 4 6 1 0 3 3 3 1 0 2 0 3 5 6 7 8 8 9 10 9 9
15 16 13 11 7 5 7 7 5 3 1 5 10 10 2 1 2 1 2 1 3 1 5 3 2 7 10 13 8 9 3 2 5 11 9 5 5 3 7 6 4 5 2 4 5 1 2 5 7 3 2 4 7 7 1 4 7 12 4 5 8 5 3 4 2 2 4 4 2 2 2 1 6 4 3 2 2 4 4 5 6 7 8 8 8 9 10 11
15 16 13 8 9 7 7 4 2 1 8 10 10 4 2 3 2 4 4 4 3 5 5 4 3 6 8 2 1 10 9 4 5 10 12 11 10 10 10 8 8 7 8 7 9 2 3 6 1 1 2 7 6 8 3 5 5 3 5 9 11 6 2 3 5 5 6 4 2 2 1 4 2 3 5 4 3 5 4 5 5 7 8 9 10 12 11 10
16 12 15 12 11 9 13 12 8 7 8 10 6 1 2 2 4 4 5 3 2 1 4 4 4 3 7 6 4 5 3 8 5 5 9 6 11 7 3 5 8 5 8 5 5 6 4 1 3 2 2 4 10 9 6 6 7 6 10 9 10 8 6 4 3 2 2 2 1 1 2 1 4 4 5 3 3 3 5 6 7 7 9 10 11 11 11 11
14 13 9 9 10 11 11 10 7 3 7 6 3 3 1 2 5 4 7 3 3 5 5 4 9 3 9 7 6 11 7 2 10 7 9 8 10 8 5 1 7 6 3 3 7 7 6 7 9 7 7 4 8 5 10 6 8 10 3 8 4 3 4 6 6 6 7 6 3 1 5 3 7 3 4 4 2 3 5 6 7 8 8 9 10 10 12 11
12 12 11 9 9 11 12 11 8 6 3 3 2 3 5 7 2 1 1 0 1 3 4 6 4 5 5 4 3 11 4 3 4 9 8 11 8 7 10 8 2 3 4 8 2 1 7 2 1 7 0 9 8 5 6 7 7 2 2 2 4 8 1 4 1 3 5 5 3 2 1 4 2 2 1 3 3 4 5 7 8 10 9 9 10 11 10 9
11 7 8 11 9 7 8 6 8 9 6 3 4 3 9 4 3 2 1 2 2 6 9 6 3 4 3 3 1 12 2 3 8 7 1 7 5 8 4 5 8 7 6 4 4 3 2 5 2 3 1 11 11 10 4 8 5 6 5 7 2 3 7 5 2 3 2 2 2 2 1 2 1 3 4 4 2 4 5 7 9 10 11 10 9 8 8 8
9 10 8 6 8 5 6 7 10 10 5 2 4 8 4 3 4 2 1 2 2 5 3 1 2 4 2 4 3 8 6 5 5 6 5 4 2 3 6 5 2 6 6 7 1 3 6 5 1 5 6 3 4 3 5 1 4 7 5 5 4 1 3 3 4 0 0 4 2 1 3 4 5 3 8 6 7 5 5 8 10 10 10 9 7 7 8 8
9 8 10 12 7 6 8 11 13 8 4 3 7 4 3 5 1 5 1 4 6 3 1 2 3 6 4 5 4 7 5 4 5 3 5 3 2 2 4 5 3 6 7 3 4 3 2 4 3 1 2 4 1 7 6 2 4 4 3 10 7 3 6 2 3 2 5 2 2 1 2 4 7 2 8 11 10 9 8 8 9 9 8 7 7 8 8 9
8 5 5 1 3 9 11 14 9 7 2 5 3 5 2 6 2 4 3 5 3 2 1 3 3 3 3 6 2 2 6 4 6 3 6 2 3 3 4 3 6 2 3 4 3 2 2 2 1 1 3 2 3 4 6 6 2 3 5 6 3 2 4 5 1 2 3 3 3 1 2 2 7 3 10 12 11 11 9 9 8 8 7 6 7 7 8 9
5 3 2 4 6 9 14 11 4 2 2 6 5 6 2 3 3 5 5 2 2 2 2 2 6 7 4 4 5 5 1 4 7 2 1 0 2 3 2 2 5 5 2 2 3 2 1 1 3 2 2 2 7 2 6 10 8 3 6 5 2 3 2 3 3 1 4 4 2 5 2 6 3 1 6 11 11 11 11 10 8 7 7 7 7 7 8 7
3 3 1 4 7 10 9 4 4 6 6 1 1 3 4 4 4 1 0 5 3 3 6 8 6 5 3 1 2 1 4 2 2 2 1 2 1 3 3 4 3 7 2 3 4 2 2 0 3 1 4 4 1 1 1 2 2 6 9 8 7 6 8 9 4 2 1 4 4 5 3 2 3 1 4 11 9 10 11 13 9 8 8 7 8 8 7 7
3 2 2 5 9 10 5 6 2 1 1 4 4 3 3 1 2 7 4 2 4 3 4 6 9 10 7 5 3 3 4 3 1 2 1 4 1 1 2 2 1 7 8 5 6 3 2 3 4 2 2 3 2 4 1 2 2 2 2 5 4 0 5 6 6 4 2 3 2 1 2 1 3 1 7 10 11 11 10 12 10 8 8 7 6 7 7 8
3 2 2 9 9 5 3 0 1 0 3 2 3 5 4 4 4 2 3 0 3 6 4 5 7 6 7 4 2 3 4 4 2 2 2 3 3 2 2 2 3 4 4 2 4 3 1 2 3 2 1 2 2 2 5 4 5 6 5 3 3 5 3 4 4 7 4 3 3 2 3 1 2 3 8 11 12 11 8 10 12 8 7 7 6 6 7 7
3 3 1 3 6 3 3 3 5 3 3 3 1 4 2 2 2 2 3 2 3 2 4 4 2 5 1 2 2 6 4 4 2 2 3 2 2 0 2 3 6 5 5 8 7 7 3 2 3 2 2 2 3 3 2 2 2 3 3 2 2 3 5 3 6 1 3 3 0 6 5 2 3 7 9 11 11 11 12 10 10 9 7 7 7 6 6 7
4 2 1 4 5 4 2 1 0 1 3 2 1 4 3 2 5 9 6 6 5 7 3 4 4 2 1 0 4 2 2 2 4 3 2 1 2 2 4 3 4 3 1 2 3 7 3 2 3 5 5 5 4 3 4 4 3 2 2 3 4 3 7 6 3 3 3 4 2 3 2 1 7 9 9 10 11 10 9 10 9 8 9 7 7 6 7 8
2 1 2 3 3 3 3 3 4 1 2 3 1 4 2 3 3 4 7 7 9 7 6 5 3 1 3 4 6 6 6 5 3 6 3 3 1 1 1 4 3 5 7 10 6 6 4 3 5 0 4 4 2 2 4 3 3 3 2 4 3 3 4 2 4 3 4 4 3 1 5 10 10 11 12 10 10 12 10 9 8 8 9 8 7 6 7 8
3 2 3 5 2 5 5 4 4 2 2 4 2 2 4 4 3 6 6 4 2 3 2 2 2 1 1 6 4 6 4 9 9 8 1 4 1 1 3 1 2 6 5 6 4 5 4 5 5 11 12 5 3 1 4 4 5 3 3 2 3 4 4 3 4 3 8 9 2 1 10 15 13 13 11 11 8 10 9 9 9 7 7 7 7 7 9 9
2 1 2 1 1 3 3 5 5 5 5 2 3 1 2 1 1 2 3 6 2 2 3 2 5 6 2 4 6 5 1 5 3 3 2 3 4 2 3 6 5 6 2 3 3 3 4 3 3 8 8 9 6 5 5 9 8 8 7 5 5 5 1 5 2 2 3 3 4 10 14 10 12 12 11 9 9 10 9 9 9 8 8 7 7 7 7 10
3 3 3 1 2 2 5 2 4 7 7 5 2 2 1 1 6 5 2 5 3 2 1 2 5 7 4 2 2 5 3 8 1 3 2 3 3 1 3 1 4 5 4 4 5 2 5 4 3 7 12 11 9 7 4 9 8 10 9 9 7 7 6 5 6 3 3 0 1 16 14 8 5 7 10 9 8 9 9 8 8 8 8 7 7 7 8 9
1 1 2 2 4 4 2 3 3 5 7 6 2 2 3 3 5 3 1 1 1 2 3 6 3 5 3 5 5 4 2 1 7 4 2 4 2 1 2 1 2 2 4 4 1 2 2 2 6 3 4 8 9 5 6 6 6 10 9 9 8 8 10 9 9 6 7 8 9 15 13 6 3 6 10 9 9 9 10 10 9 7 7 7 8 9 9 9
3 2 4 4 2 3 2 2 3 5 3 2 4 2 1 2 4 3 3 2 2 2 1 8 6 9 8 12 11 7 2 4 8 7 5 3 5 1 2 2 2 2 3 3 3 3 5 3 2 2 3 3 5 8 7 9 11 12 9 9 9 6 6 4 4 2 1 9 13 12 9 7 5 8 10 9 10 10 9 9 8 7 7 7 8 9 9 8
3 2 2 3 2 4 3 1 2 3 4 4 5 4 4 9 3 5 2 1 4 4 3 5 5 9 6 13 9 4 2 7 10 8 8 9 10 8 8 6 3 1 3 3 1 3 2 8 4 2 4 2 1 1 2 2 5 3 3 4 5 4 4 5 5 7 6 6 13 8 4 5 11 9 11 8 10 9 9 7 7 8 7 7 8 8 8 7
Wind_Direction
331 328 327 321 322 324 329 332 323 320 326 331 327 326 326 324 324 325 325 324 327 329 328 333 333 332 330 334 329 330 335 329 313 307 282 240 163 201 182 119 161 176 159 115 123 133 97 110 120 221 124 175 72 168 141 165 103 187 183 136 196 172 204 191 206 192 63 317 337 5 354 337 350 52 73 87 64 71 120 100 109 105 61 49 111 127 131 138
332 332 328 323 324 324 319 323 332 327 323 323 328 322 322 325 323 320 323 323 325 326 328 329 333 333 330 330 333 336 341 313 298 277 242 149 212 197 192 156 158 174 145 133 152 154 134 146 145 155 143 140 308 128 248 160 236 171 107 202 226 183 216 189 181 201 304 313 308 335 332 320 316 239 88 326 94 142 178 147 119 117 85 99 119 128 135 140
336 333 333 332 329 329 328 320 322 328 325 321 320 319 320 319 320 319 318 320 323 325 326 330 331 330 330 332 328 348 334 313 272 259 286 194 231 229 194 168 160 164 174 157 181 157 163 168 156 143 141 118 223 146 210 137 199 167 193 202 226 194 254 230 222 262 221 304 304 325 352 306 339 303 46 267 156 238 198 179 177 194 156 138 136 136 140 143
336 333 334 332 330 325 330 325 319 317 319 321 320 317 315 317 315 318 318 318 321 323 326 326 329 331 327 330 340 345 323 271 263 254 33 286 224 225 200 179 161 171 139 139 157 135 82 116 143 155 127 159 140 172 169 164 205 138 210 216 231 185 241 227 207 240 257 222 285 332 280 301 39 222 258 162 161 227 255 253 232 195 160 152 146 143 146 149
329 333 333 331 330 326 321 324 322 318 318 321 320 314 318 313 318 315 317 314 320 320 324 325 327 328 330 329 342 14 308 297 295 157 258 294 241 209 186 171 162 164 165 125 106 90 135 140 142 74 146 150 149 145 214 169 256 138 223 212 223 110 229 254 241 225 232 119 236 281 319 334 309 167 251 186 163 124 177 195 215 18 139 148 151 151 150 152
333 335 331 326 328 328 324 319 317 319 320 318 315 313 315 322 313 315 315 314 317 322 322 324 325 329 328 339 340 69 235 261 36 53 310 310 321 222 170 167 158 150 133 144 143 136 122 132 153 161 172 156 171 179 174 180 162 207 149 244 242 212 256 295 232 210 180 258 300 306 311 328 8 313 170 273 302 341 334 333 13 97 129 145 145 151 155 156
334 332 333 329 329 328 322 320 320 315 314 318 317 316 313 314 316 311 310 316 314 319 322 323 325 327 337 353 88 339 253 295 298 231 14 79 83 126 147 152 142 150 153 128 141 155 164 150 175 175 158 121 196 200 161 163 208 235 204 147 240 218 231 235 276 270 264 272 265 204 328 281 354 313 76 214 250 285 320 355 110 115 127 141 146 158 159 161
331 332 332 329 327 320 319 318 316 316 315 314 312 309 314 310 312 310 312 310 315 315 319 320 325 330 11 351 306 315 46 246 288 334 354 57 109 132 134 133 147 156 165 165 156 158 153 153 180 128 181 179 173 191 157 147 177 204 226 200 262 241 230 249 257 277 265 257 270 237 267 285 161 227 138 214 259 331 12 98 111 120 130 142 150 157 158 158
330 330 328 326 324 320 322 322 319 314 314 318 314 312 313 318 315 312 308 309 311 313 311 316 322 338 91 70 40 298 241 260 322 329 332 91 110 122 131 136 173 165 165 154 164 149 153 193 153 183 199 192 160 178 177 170 212 214 213 166 230 241 260 252 282 266 281 275 198 228 246 81 233 84 228 182 266 315 134 105 114 122 135 149 158 159 159 157
327 329 325 325 324 318 320 322 320 319 318 314 316 315 312 311 309 309 308 306 307 307 306 313 315 330 1 341 176 236 272 258 331 342 66 119 118 130 129 142 160 154 145 166 143 156 185 180 182 177 117 61 169 175 164 204 192 163 198 207 233 256 330 317 235 277 81 259 192 234 275 82 111 205 183 327 255 175 123 110 121 133 146 158 162 160 156 157
321 321 325 322 321 321 317 318 312 308 319 318 314 310 313 312 309 304 305 303 303 302 303 299 322 318 351 82 199 233 246 29 28 39 55 113 127 142 155 166 158 162 153 155 171 184 143 132 139 126 258 192 166 132 175 203 122 159 166 176 250 264 273 258 288 270 291 270 197 217 255 135 107 163 218 133 175 186 146 130 138 143 156 163 168 165 154 161
324 323 325 321 324 329 322 311 314 311 315 315 317 310 308 311 305 303 299 301 299 300 299 301 294 286 230 240 226 223 43 82 72 36 65 101 123 114 157 204 177 172 154 164 197 162 158 151 148 161 184 132 174 114 232 146 183 148 163 186 217 302 262 212 237 306 189 257 135 160 178 271 272 184 229 176 166 183 158 140 152 154 163 170 174 174 166 169
324 324 323 323 324 325 324 323 327 319 317 314 313 311 310 310 307 300 297 295 295 296 297 301 301 252 263 266 233 248 278 256 310 336 335 313 69 111 118 181 252 36 337 167 161 185 113 153 179 165 116 179 143 199 90 168 135 128 143 197 230 239 249 209 340 131 195 256 157 179 221 165 231 269 268 165 172 171 155 160 171 163 170 176 183 184 174 175
322 320 323 325 322 318 324 326 327 319 316 323 316 310 305 302 299 296 291 285 289 289 294 291 260 245 207 253 267 262 247 271 285 287 252 215 228 218 107 159 184 25 17 88 131 201 139 353 180 138 109 187 162 142 172 64 341 188 137 152 218 203 227 122 336 101 206 109 196 224 231 195 258 268 126 155 195 177 186 183 171 166 176 178 185 188 184 186
323 323 325 326 323 322 325 327 330 328 322 317 318 313 307 303 297 290 287 285 281 288 280 263 241 188 232 266 273 267 258 213 252 234 140 179 194 142 170 119 173 78 29 63 86 226 123 118 132 165 190 108 177 205 107 157 29 105 155 182 123 199 209 322 114 190 206 74 162 215 193 216 277 271 335 178 210 239 226 135 158 177 189 182 188 191 190 195
327 326 327 330 325 323 320 325 326 324 320 319 318 314 310 301 294 288 279 276 281 265 252 250 195 205 301 285 280 298 134 176 263 226 192 181 182 192 148 129 109 106 156 37 73 91 102 159 187 194 120 121 160 148 110 157 154 354 221 127 159 170 202 279 118 92 25 134 66 268 182 92 175 333 352 143 208 215 234 183 177 185 189 188 197 201 201 202
327 329 330 330 332 337 332 326 323 319 317 318 319 315 311 301 293 281 261 249 248 236 201 202 179 198 253 217 325 245 234 224 201 88 180 213 174 147 133 123 144 119 129 71 65 91 94 175 89 106 9 163 159 162 170 195 174 177 314 149 117 188 161 199 2 72 40 211 165 70 235 206 347 344 24 157 195 211 230 214 186 190 191 193 200 207 207 211
319 323 325 326 331 334 331 327 320 322 324 327 327 320 311 305 324 132 148 175 185 196 199 255 181 218 255 276 269 191 356 285 204 124 159 166 174 150 143 137 125 131 125 95 48 179 197 163 268 183 158 159 172 183 195 192 171 162 163 143 147 85 212 165 165 95 331 38 152 122 261 252 269 283 272 240 197 212 224 236 185 188 193 198 204 208 212 220
323 327 325 328 326 327 329 326 321 324 327 341 329 316 297 338 66 95 123 153 147 107 192 195 178 186 173 187 271 330 304 281 33 168 153 149 174 132 75 88 135 139 151 159 157 171 158 123 138 170 189 177 188 195 194 114 159 165 174 169 144 154 161 171 197 39 16 39 157 185 195 158 296 308 4 23 225 227 239 354 275 202 203 207 212 215 216 226
330 328 323 326 332 329 325 324 323 323 333 338 343 334 326 184 200 112 150 225 233 209 1 183 206 316 324 223 86 336 248 208 237 196 142 173 143 151 115 133 107 94 150 180 142 204 169 169 186 190 177 170 163 177 187 163 168 105 87 133 149 144 138 311 258 160 178 209 134 199 307 33 335 339 339 338 3 225 232 254 262 220 221 220 223 221 227 231
328 337 331 324 325 322 323 325 318 320 336 346 333 342 94 79 170 199 193 238 242 267 264 240 204 220 240 60 11 24 13 326 71 304 178 177 172 151 166 147 153 159 181 158 152 124 190 190 192 162 158 166 180 170 101 99 135 140 134 135 138 184 163 169 132 31 49 293 129 271 112 48 25 9 352 337 154 115 343 224 207 228 226 233 239 238 237 229
325 329 332 328 330 323 318 322 325 326 338 327 326 268 271 236 4 48 320 281 231 233 242 247 208 251 264 271 355 6 10 312 304 276 206 166 176 174 173 169 157 177 120 132 108 153 189 203 161 190 134 94 94 140 163 147 137 98 159 154 152 188 305 313 257 304 44 335 123 343 88 42 22 6 15 20 28 36 12 41 46 284 228 233 239 241 239 232
319 328 329 324 325 318 318 315 316 334 315 265 255 214 241 228 6 1 314 276 274 233 223 226 231 241 254 246 245 161 203 226 254 269 157 185 171 205 147 171 170 146 141 174 172 154 183 203 194 131 141 121 97 136 133 97 89 143 128 166 194 102 180 170 161 70 21 324 79 143 95 65 25 298 21 24 21 9 21 59 57 38 17 272 246 245 243 243
313 320 325 321 323 321 319 320 323 315 80 310 255 228 245 303 317 339 302 244 295 256 194 206 203 211 226 198 190 182 190 221 185 263 169 182 171 149 160 167 156 159 178 192 179 175 176 173 141 145 153 150 142 158 146 160 162 352 174 169 163 166 196 189 149 271 143 67 83 156 105 100 21 14 33 29 340 359 37 64 48 41 31 7 287 110 159 251
314 317 321 319 328 325 330 321 316 4 331 286 249 259 255 269 289 311 282 276 229 267 162 300 168 232 219 116 138 164 207 228 213 242 167 183 144 154 169 136 150 191 170 180 166 171 165 107 130 143 156 142 135 149 176 157 175 162 241 203 179 187 177 29 34 257 176 161 75 230 165 81 357 344 11 353 351 36 36 57 43 39 35 28 33 30 51 88
315 318 322 319 326 330 325 293 56 328 318 271 229 68 31 340 315 261 240 294 281 233 116 232 151 223 143 174 154 161 125 232 199 210 180 189 181 160 125 170 196 183 161 161 176 183 148 140 164 158 157 156 157 164 186 188 173 178 196 191 183 174 177 136 139 179 189 193 133 322 241 125 293 12 2 357 343 41 57 50 40 39 35 31 24 19 23 34
318 318 320 329 334 333 333 322 338 322 304 343 72 9 352 341 326 232 226 216 285 173 156 27 202 146 197 168 153 148 179 231 134 180 189 181 186 266 161 158 94 61 147 137 111 192 126 148 143 141 151 157 152 183 167 178 148 194 142 173 168 151 162 184 161 208 181 15 177 64 337 144 151 124 347 337 312 21 43 39 39 35 32 29 24 22 27 34
316 320 320 320 325 329 298 306 314 303 252 352 349 352 336 335 331 171 254 341 265 161 189 177 231 115 201 156 170 172 254 116 144 195 192 170 192 308 197 172 179 159 163 166 192 108 156 167 167 159 162 173 190 166 154 185 167 182 169 171 173 174 178 167 185 175 313 264 207 185 151 165 125 98 324 339 249 34 37 34 38 37 35 30 37 36 36 39
312 318 314 321 313 318 303 284 288 264 252 357 337 326 332 320 240 232 278 315 229 57 17 111 230 137 55 156 199 223 18 228 307 117 148 154 248 161 183 174 150 152 168 196 178 122 255 180 177 157 166 188 170 186 160 166 160 245 116 83 65 62 68 171 172 167 175 199 227 186 173 210 121 294 290 145 54 51 36 43 47 44 44 40 41 45 49 47
309 315 313 316 316 299 292 262 250 249 295 315 320 316 307 179 172 219 126 241 346 11 10 325 216 165 148 155 196 225 250 19 146 110 144 168 185 47 26 85 146 153 167 192 191 138 105 356 165 164 188 176 172 109 166 173 118 111 128 118 103 77 109 76 58 149 129 217 223 266 315 248 168 162 247 339 46 49 52 63 55 51 51 50 49 50 50 48
309 311 310 313 297 304 305 278 268 263 232 332 328 306 170 192 240 131 217 235 355 327 296 180 167 126 153 161 177 217 241 307 131 145 140 150 137 77 137 104 53 109 92 158 180 80 115 113 150 218 138 80 121 108 36 26 122 141 152 139 138 118 149 115 105 182 186 207 214 18 267 250 219 149 203 193 68 76 51 66 54 60 58 57 55 56 55 54
306 304 303 302 280 274 257 260 125 257 349 342 336 334 195 198 338 202 206 359 265 325 306 334 147 161 177 198 10 177 183 149 166 161 157 169 159 165 180 174 161 151 178 173 187 64 185 168 198 284 233 150 146 122 97 145 169 175 138 161 170 166 154 162 152 178 196 184 101 23 221 186 218 51 133 137 62 70 47 64 71 69 64 60 60 59 59 58
303 293 297 290 281 258 251 260 274 304 333 336 333 283 197 162 222 228 271 347 111 186 336 309 337 229 177 196 188 166 193 183 156 180 146 146 164 165 20 180 165 157 180 171 139 162 193 332 288 215 119 217 159 156 146 159 201 182 175 171 173 164 175 168 159 35 123 291 5 292 328 264 43 123 145 146 94 57 55 79 78 77 72 69 64 57 53 51
297 304 300 273 267 253 252 249 252 276 301 317 285 152 337 149 240 221 240 217 214 145 248 323 333 311 169 191 177 158 181 223 169 163 169 158 169 166 173 167 164 134 77 129 186 174 169 190 221 170 203 156 181 154 164 153 163 203 125 184 208 158 170 165 172 168 178 151 114 306 179 184 180 113 147 148 98 69 91 91 86 81 78 73 68 63 56 52
305 301 281 273 259 255 244 236 233 218 205 263 174 190 185 220 279 279 228 355 213 230 329 309 315 321 207 241 178 181 178 147 175 145 163 155 185 174 170 172 209 97 111 154 233 144 200 236 201 174 278 162 176 162 125 115 136 128 136 25 169 201 144 161 92 125 141 131 133 77 290 346 14 5 257 145 113 119 108 99 83 76 67 61 55 52 50 47
311 283 284 278 267 256 205 211 189 177 180 179 176 180 220 203 202 197 130 304 16 350 329 307 334 284 235 252 261 192 262 156 164 151 166 186 141 171 154 154 179 181 151 171 151 149 96 192 59 131 52 176 177 147 175 156 168 174 162 202 211 42 111 97 93 29 48 77 98 22 276 204 265 226 159 160 157 141 109 102 85 75 69 63 59 53 49 42
305 309 296 284 264 197 152 153 162 158 168 206 180 216 217 266 228 211 303 15 334 324 349 124 249 229 230 210 198 190 197 110 164 161 170 132 163 189 171 183 171 170 186 127 184 265 158 176 28 145 198 263 29 154 127 298 118 105 190 184 107 110 23 135 153 111 184 172 107 102 154 172 179 173 161 172 198 147 144 106 90 82 77 69 61 57 52 46
311 298 285 273 271 138 137 150 148 156 166 193 218 235 185 236 212 224 26 5 350 2 116 143 283 218 222 203 200 184 194 206 162 157 144 190 155 121 145 170 197 195 168 270 151 193 197 162 172 288 180 97 329 121 98 60 321 162 200 150 175 153 192 15 110 169 161 137 125 137 287 243 226 147 163 185 188 162 144 111 100 89 78 69 64 60 54 50
294 290 296 44 26 136 141 149 156 145 167 200 227 244 204 244 314 273 357 325 254 36 99 220 232 276 173 194 181 161 173 191 146 135 153 240 162 179 185 139 190 193 139 176 102 137 0 142 89 205 153 152 118 183 176 169 142 65 104 143 4 230 153 160 194 118 160 125 125 98 140 228 214 208 194 176 174 153 126 107 102 89 78 65 56 55 52 45
285 292 251 52 113 131 145 155 157 166 186 210 201 228 14 304 281 316 280 255 327 38 253 260 234 273 253 265 188 150 7 132 152 175 31 345 91 358 238 290 176 165 164 244 101 266 130 312 133 108 250 204 165 212 189 163 166 128 167 169 158 33 339 66 49 89 195 152 166 130 196 249 232 91 169 168 164 148 131 118 108 98 79 73 67 59 58 50
285 261 319 115 132 140 151 193 179 187 197 315 342 279 344 284 351 275 212 309 266 173 217 247 252 248 317 160 223 98 118 54 73 121 89 131 187 180 239 198 198 153 119 77 129 173 90 342 132 132 140 190 55 300 269 242 166 166 165 182 174 142 145 174 173 101 57 153 155 160 190 183 75 157 178 159 142 126 132 121 114 99 83 74 64 57 53 54
287 236 74 127 140 161 176 156 203 95 252 208 214 181 236 213 235 269 245 214 164 303 241 263 259 251 233 247 148 136 112 81 72 100 293 149 247 292 138 86 250 163 147 169 170 225 151 130 100 84 74 80 108 81 22 256 200 48 270 171 151 221 141 178 177 162 92 41 91 19 142 135 58 190 156 146 128 134 132 117 110 102 92 78 72 73 63 58
221 313 54 155 165 184 290 251 325 193 224 242 324 271 249 270 238 275 332 119 289 208 246 207 235 208 223 220 173 95 136 89 355 126 118 120 152 228 288 180 175 105 78 61 55 177 122 82 78 23 10 298 342 49 91 68 142 121 58 53 170 182 193 164 162 163 150 131 162 151 200 93 185 139 119 115 118 118 112 112 117 111 101 93 80 72 67 64
308 302 71 146 193 268 242 179 199 209 240 294 205 272 241 256 256 285 235 189 204 259 246 268 250 204 252 227 125 142 210 105 334 102 91 248 102 193 340 161 187 154 160 187 165 182 171 284 149 118 92 25 91 139 119 114 68 62 94 44 357 83 80 95 89 52 137 184 195 174 201 205 170 118 113 117 115 111 112 107 114 113 107 100 90 75 70 69
300 249 30 136 219 284 240 31 113 122 215 243 318 267 258 230 222 231 228 248 216 240 255 240 249 279 134 201 81 95 48 154 129 329 97 153 85 342 27 54 222 123 296 109 65 124 71 125 167 173 159 158 148 173 160 161 137 105 54 64 34 107 127 153 136 159 177 156 172 185 116 143 126 127 126 126 118 104 101 102 99 112 115 110 93 84 71 70
242 160 82 130 215 263 283 279 277 236 141 190 303 249 195 257 283 233 196 255 237 234 221 283 290 336 40 91 49 32 39 9 107 163 164 139 98 44 348 360 92 109 94 84 68 78 108 72 27 134 169 164 122 42 8 347 128 133 84 38 8 21 347 44 75 147 190 152 185 173 152 151 154 160 149 148 139 131 126 120 116 116 113 99 87 77 71 67
317 232 154 172 178 258 265 284 284 232 213 186 198 195 231 207 280 305 163 240 182 209 187 256 313 94 101 71 106 76 355 79 63 89 31 123 274 94 297 235 84 55 91 87 18 91 101 86 51 71 56 48 31 9 336 338 111 63 92 51 17 19 347 124 156 167 121 119 181 190 165 156 179 165 158 150 141 131 133 132 125 119 107 99 95 87 81 75
230 313 268 301 233 187 189 247 219 248 272 188 259 319 263 45 291 254 297 228 291 160 199 210 42 27 332 131 139 96 60 73 18 107 120 33 130 3 69 21 56 316 340 80 335 102 112 98 125 90 65 59 48 56 73 80 67 88 76 62 40 359 33 127 144 83 173 184 189 171 174 168 165 162 151 141 143 142 141 126 115 115 106 103 100 86 77 72
265 316 290 299 253 210 206 166 175 213 243 244 287 252 11 197 260 225 244 317 339 343 22 93 351 334 338 309 99 119 184 114 37 323 133 86 49 43 95 76 72 24 68 76 39 76 103 62 135 119 95 53 39 48 76 110 103 75 59 59 55 66 68 81 94 69 358 347 171 152 167 120 113 128 121 119 117 112 107 103 101 95 96 95 90 76 71 71
240 336 305 296 281 297 262 219 216 188 224 238 251 240 162 213 257 301 178 215 332 342 19 80 23 5 20 66 70 88 206 209 150 130 237 117 69 357 76 33 134 57 42 65 43 320 120 127 163 201 81 47 39 64 82 101 120 91 63 58 61 85 85 77 95 82 78 80 120 141 139 135 84 100 105 108 104 104 92 86 81 81 84 82 80 72 63 60
287 323 292 298 287 257 211 190 171 181 205 236 225 243 105 275 272 256 266 224 260 295 20 130 153 87 38 68 63 66 344 117 90 86 163 187 119 230 131 138 287 106 24 65 25 1 56 129 84 197 113 68 39 68 89 101 96 92 67 41 32 43 74 48 64 355 135 138 136 125 144 172 151 125 109 106 99 86 86 85 81 75 74 76 75 66 59 50
299 278 260 280 246 263 215 151 85 120 225 217 193 208 155 245 221 7 326 127 78 73 14 129 152 92 50 70 50 30 15 90 90 85 91 81 88 81 68 72 41 77 115 90 314 61 75 137 160 162 99 104 112 261 11 264 121 102 38 358 7 62 81 101 65 39 23 142 140 161 184 106 137 134 114 101 98 94 82 80 92 84 75 75 72 70 63 56